Weather History for Lander, WY

Change the Weather History Date:

Tuesday, April 24, 2012

  Actual Average Record
Temperature  
Mean Temperature 66 °F 46 °F  
Max Temperature 82 °F 59 °F 82 °F (2012)
Min Temperature 49 °F 34 °F 13 °F (1892)
Degree Days  
Heating Degree Days 0 19  
Month to date heating degree days 382 529  
Since 1 July heating degree days 6361 7148  
Cooling Degree Days 1 0  
Month to date cooling degree days 1 0  
Year to date cooling degree days 1 0  
Growing Degree Days 15 (Base 50)    
Moisture  
Dew Point 32 °F    
Average Humidity 33    
Maximum Humidity 50    
Minimum Humidity 15    
Precipitation  
Precipitation 0.00 in 0.07 in 0.90 in (1990)
Month to date precipitation 0.99 1.43  
Year to date precipitation 2.66 3.58  
Snow  
Snow 0.00 in 0.60 in - ()
Month to date snowfall 4.1 13.8  
Since 1 July snowfall 63.3 83.5  
Snow Depth 0.00 in    
Sea Level Pressure  
Sea Level Pressure 29.75 in    
Wind  
Wind Speed 9 mph (West)    
Max Wind Speed 28 mph    
Max Gust Speed 41 mph    
Visibility 10 miles    
Events Thunderstorm    
T = Trace of Precipitation, MM = Missing Value Source: NWS Daily Summary

Daily Weather History Graph

Daily Weather History Graph

Search for Another Location

Airport:

Trip Planner

Search our weather history database for the weather conditions in past years. The results will help you decide how hot, cold, wet, or windy it might be!

Date:

Astronomy

Apr. 24, 2012 Rise Set
Actual Time 6:18 AM MDT 8:08 PM MDT
Civil Twilight 5:48 AM MDT 8:38 PM MDT
Nautical Twilight 5:11 AM MDT 9:15 PM MDT
Astronomical Twilight 4:31 AM MDT 9:55 PM MDT
Moon 8:12 AM MDT (4/24) 11:34 PM MDT (4/24)
Length of Visible Light 14h 50m
Length of Day
13h 49m
Waxing Crescent, 10% of the Moon is Illuminated
Apr 24
Waxing Crescent
Apr 29
First Quarter
May 5
Full
May 12
Last Quarter
May 20
New

Hourly Weather History & Observations

Time (MDT) Temp. Dew Point Humidity Pressure Visibility Wind Dir Wind Speed Gust Speed Precip Events Conditions
12:53 AM 59.0 °F 30.9 °F 35% 29.79 in 10.0 mi WNW 6.9 mph - N/A   Clear
1:53 AM 57.9 °F 30.9 °F 36% 29.79 in 10.0 mi WSW 3.5 mph - N/A   Clear
2:53 AM 55.9 °F 30.9 °F 39% 29.79 in 10.0 mi ENE 4.6 mph - N/A   Clear
3:53 AM 55.0 °F 32.0 °F 42% 29.79 in 10.0 mi Variable 4.6 mph - N/A   Clear
4:53 AM 50.0 °F 32.0 °F 50% 29.81 in 10.0 mi Calm Calm - N/A   Clear
5:53 AM 51.1 °F 32.0 °F 48% 29.80 in 10.0 mi Calm Calm - N/A   Clear
6:53 AM 51.1 °F 32.0 °F 48% 29.82 in 10.0 mi NNW 10.4 mph - N/A   Clear
7:53 AM 57.9 °F 37.0 °F 46% 29.82 in 10.0 mi ENE 3.5 mph - N/A   Clear
8:53 AM 59.0 °F 37.0 °F 44% 29.81 in 10.0 mi ESE 6.9 mph - N/A   Clear
9:53 AM 68.0 °F 34.0 °F 28% 29.76 in 10.0 mi SE 8.1 mph - N/A   Unknown
10:53 AM 75.0 °F 36.0 °F 24% 29.74 in 10.0 mi SE 11.5 mph - N/A   Clear
11:53 AM 79.0 °F 33.1 °F 19% 29.71 in 10.0 mi East 3.5 mph - N/A   Partly Cloudy
12:53 PM 79.0 °F 26.1 °F 14% 29.69 in 10.0 mi WNW 13.8 mph 21.9 mph N/A   Scattered Clouds
1:53 PM 79.0 °F 28.9 °F 16% 29.66 in 10.0 mi SW 10.4 mph 23.0 mph N/A   Clear
2:14 PM 78.8 °F 26.6 °F 15% 29.87 in 10.0 mi West 10.4 mph 29.9 mph N/A Thunderstorm Thunderstorm
2:32 PM 80.6 °F 28.4 °F 15% 29.87 in 10.0 mi West 17.3 mph 28.8 mph N/A   Clear
2:53 PM 75.0 °F 33.1 °F 22% 29.68 in 10.0 mi WNW 24.2 mph 38.0 mph N/A   Partly Cloudy
3:53 PM 78.1 °F 30.0 °F 17% 29.66 in 10.0 mi NW 27.6 mph 35.7 mph N/A   Clear
4:53 PM 77.0 °F 32.0 °F 19% 29.68 in 10.0 mi West 17.3 mph 27.6 mph N/A   Clear
5:53 PM 73.0 °F 33.1 °F 23% 29.66 in 10.0 mi SSW 9.2 mph - N/A   Scattered Clouds
6:53 PM 72.0 °F 34.0 °F 25% 29.66 in 10.0 mi Variable 4.6 mph - N/A   Mostly Cloudy
7:53 PM 72.0 °F 32.0 °F 23% 29.66 in 10.0 mi Calm Calm - N/A   Mostly Cloudy
8:53 PM 64.9 °F 34.0 °F 32% 29.70 in 10.0 mi WSW 11.5 mph - N/A   Scattered Clouds
9:53 PM 63.0 °F 34.0 °F 34% 29.72 in 10.0 mi NNW 15.0 mph 19.6 mph N/A   Clear
10:53 PM 59.0 °F 35.1 °F 41% 29.73 in 10.0 mi WNW 6.9 mph - N/A   Clear
11:53 PM 57.9 °F 37.0 °F 46% 29.73 in 10.0 mi West 5.8 mph - N/A   Clear